TimePDT,TemperatureF,Dew PointF,Humidity,Sea Level PressureIn,VisibilityMPH,Wind Direction,Wind SpeedMPH,Gust SpeedMPH,PrecipitationIn,Events,Conditions,WindDirDegrees,DateUTC
12:53 AM,68.0,60.1,76,29.90,10.0,Calm,Calm,-,N/A,,Clear,0,2013-08-20 07:53:00
1:53 AM,68.0,60.1,76,29.89,9.0,Calm,Calm,-,N/A,,Clear,0,2013-08-20 08:53:00
2:23 AM,66.2,60.8,83,29.90,8.0,Calm,Calm,-,N/A,,Mostly Cloudy,0,2013-08-20 09:23:00
2:53 AM,66.9,60.1,79,29.89,7.0,South,3.5,-,N/A,,Mostly Cloudy,170,2013-08-20 09:53:00
3:53 AM,68.0,60.1,76,29.88,6.0,Calm,Calm,-,N/A,,Haze,0,2013-08-20 10:53:00
4:53 AM,68.0,60.1,76,29.88,4.0,NW,3.5,-,N/A,,Haze,310,2013-08-20 11:53:00
5:53 AM,68.0,60.1,76,29.88,4.0,Calm,Calm,-,N/A,,Haze,0,2013-08-20 12:53:00
6:53 AM,68.0,60.1,76,29.89,3.0,WNW,3.5,-,N/A,,Haze,290,2013-08-20 13:53:00
7:53 AM,68.0,60.1,76,29.91,3.0,Calm,Calm,-,N/A,,Haze,0,2013-08-20 14:53:00
8:53 AM,69.1,60.1,73,29.92,3.0,SSW,4.6,-,N/A,,Haze,210,2013-08-20 15:53:00
9:53 AM,72.0,60.1,66,29.93,4.0,Variable,4.6,-,N/A,,Haze,0,2013-08-20 16:53:00
10:03 AM,73.4,60.8,65,29.93,4.0,Variable,4.6,-,N/A,,Haze,0,2013-08-20 17:03:00
10:53 AM,77.0,60.1,56,29.92,5.0,Calm,Calm,-,N/A,,Haze,0,2013-08-20 17:53:00
11:53 AM,81.0,60.1,49,29.91,7.0,Calm,Calm,-,N/A,,Clear,0,2013-08-20 18:53:00
12:53 PM,84.0,60.1,44,29.88,8.0,South,4.6,-,N/A,,Clear,190,2013-08-20 19:53:00
1:53 PM,86.0,61.0,43,29.86,10.0,Variable,5.8,-,N/A,,Clear,0,2013-08-20 20:53:00
2:53 PM,89.1,59.0,36,29.85,10.0,WNW,5.8,-,N/A,,Unknown,290,2013-08-20 21:53:00
3:53 PM,88.0,60.1,39,29.84,10.0,SW,8.1,-,N/A,,Clear,220,2013-08-20 22:53:00
4:53 PM,87.1,57.9,37,29.82,10.0,Variable,5.8,-,N/A,,Clear,0,2013-08-20 23:53:00
5:53 PM,82.9,57.9,42,29.83,10.0,West,6.9,-,N/A,,Clear,280,2013-08-21 00:53:00
6:53 PM,78.1,59.0,52,29.83,10.0,West,5.8,-,N/A,,Clear,280,2013-08-21 01:53:00
7:53 PM,73.9,57.9,57,29.85,10.0,WNW,5.8,-,N/A,,Clear,290,2013-08-21 02:53:00
8:53 PM,72.0,59.0,64,29.87,10.0,West,3.5,-,N/A,,Clear,280,2013-08-21 03:53:00
9:53 PM,70.0,59.0,68,29.89,10.0,Variable,3.5,-,N/A,,Clear,0,2013-08-21 04:53:00
10:53 PM,69.1,59.0,70,29.89,10.0,West,3.5,-,N/A,,Clear,270,2013-08-21 05:53:00
11:53 PM,69.1,57.9,68,29.90,10.0,Calm,Calm,-,N/A,,Clear,0,2013-08-21 06:53:00